Location: Zagreb
(45.8000°N, 16.0000°E)
Time: 19:25:13
(UTC+02:00)

S-56A Canister/Altair - Visible Passes

Search period start: 16 April 2021 00:00
Search period end: 26 April 2021 00:00
Orbit: 632 x 2500 km, 38.9° (Epoch: 15 April)

Date Brightness Start Highest point End Pass type
(mag) Time Alt. Az. Time Alt. Az. Time Alt. Az.
16 Apr 7.8 04:21:31 32° SSW 04:22:20 34° S 04:26:22 10° ESE visible
17 Apr 8.0 03:50:33 34° SSE 03:50:33 34° SSE 03:53:57 10° ESE visible
18 Apr 8.8 03:19:38 23° SE 03:19:38 23° SE 03:21:34 10° ESE visible
18 Apr 8.5 05:17:03 11° WSW 05:20:18 21° SSW 05:23:44 10° SSE visible
19 Apr 9.6 02:48:46 13° ESE 02:48:46 13° ESE 02:49:13 10° ESE visible
19 Apr 8.3 04:46:12 19° SW 04:47:52 24° SSW 04:51:27 10° SE visible
20 Apr 8.2 04:15:24 27° SSW 04:15:25 27° SSW 04:19:11 10° SE visible
21 Apr 8.6 03:44:43 23° SSE 03:44:43 23° SSE 03:46:55 10° SE visible
21 Apr 10.4 20:57:44 10° SSE 20:59:44 11° SE 20:59:50 11° SE visible
21 Apr 10.5 22:56:11 10° SSW 22:57:23 13° SSW 22:57:23 13° SSW visible
22 Apr 9.4 03:14:08 13° SE 03:14:08 13° SE 03:14:41 10° SE visible
22 Apr 9.1 05:11:35 10° SW 05:13:05 11° SSW 05:14:33 10° SSW visible
22 Apr 9.9 22:23:02 10° SSW 22:27:55 23° S 22:27:55 23° S visible
23 Apr 9.0 04:41:10 14° SSW 04:41:10 14° SSW 04:43:02 10° S visible
23 Apr 9.5 21:49:52 10° SSW 21:58:03 26° SSE 21:58:21 26° SSE visible
23 Apr 10.3 23:53:49 10° WSW 23:55:53 17° SW 23:55:53 17° SW visible
24 Apr 9.3 04:10:54 11° S 04:10:54 11° S 04:11:14 10° S visible
24 Apr 9.7 21:16:44 10° SSW 21:25:11 25° SSE 21:28:39 20° ESE visible
24 Apr 9.5 23:20:27 10° SW 23:26:10 32° SW 23:26:10 32° SW visible
25 Apr 10.0 20:43:37 10° SSW 20:52:17 24° SSE 20:58:46 10° ESE visible
25 Apr 8.9 22:47:02 10° SW 22:56:16 43° S 22:56:16 43° S visible
